Latest Coastal Weather Observations for Eucla

IDS60701

Issued at 9:02 pm CDT Saturday 20 December 2014 (issued every 10 minutes, with the page automatically refreshed every 10 minutes)

About coastal observations | Map of coastal stations | Coastal observations for SA | Marine services | Other Formats
Station Details ID: 011003 Name: EUCLA Lat: -31.68 Lon: 128.90 Height: 93.1 m
Data from the previous 72 hours. | See also: Recent months at Eucla
Date/Time
CDT
Temp

°C
Wind Pressure Rain
since 9am
mm
Weather Cloud Vis
km
Sea
Height
m
Swell
Dir
 
Speed
knots
Gust
knots
hPa Trend Height
m
Period
s
Dir
20/09:00pm 23.3 E 14 21 1006.5 - 0.0 - - - - - - -
20/08:30pm 23.7 E 13 19 1006.3 - 0.0 - - - - - - -
20/08:00pm 24.5 E 13 21 1006.4 - 0.0 - - - - - - -
20/07:30pm 25.2 E 13 19 1006.5 - 0.0 - - - - - - -
20/07:00pm 25.2 ESE 12 19 1006.6 - 0.0 - - - - - - -
20/06:30pm 24.6 E 13 19 1007.1 - 0.0 - - - - - - -
20/06:00pm 24.0 ESE 12 19 1007.9 - 0.0 - - - - - - -
20/05:30pm 24.5 ESE 12 18 1008.2 - 0.0 - - - - - - -
20/05:00pm 24.1 ESE 11 17 1008.5 - 0.0 - - - - - - -
20/04:30pm 23.5 ESE 12 17 1008.9 - 0.0 - - - - - - -
20/04:00pm 23.5 ESE 13 19 1009.5 - 0.0 - - - - - - -
20/03:30pm 24.9 ESE 13 20 1009.9 - 0.0 - - - - - - -
20/03:00pm 24.2 ESE 12 17 1010.4 - 0.0 - - - - - - -
20/02:30pm 24.5 ESE 13 18 1011.1 - 0.0 - - - - - - -
20/02:00pm 24.3 ESE 12 16 1011.8 - 0.0 - - - - - - -
20/01:30pm 24.4 ESE 10 15 1012.5 - 0.0 - - - - - - -
20/01:00pm 24.5 ESE 11 16 1013.0 - 0.0 - - - - - - -
20/12:30pm 24.0 ESE 11 16 1013.4 - 0.0 - - - - - - -
20/12:00pm 24.5 ESE 11 15 1013.9 - 0.0 - - - - - - -
20/11:30am 24.0 SE 10 14 1014.4 - 0.0 - - - - - - -
20/11:00am 24.0 ESE 8 12 1014.7 - 0.0 - - - - - - -
20/10:30am 23.6 ENE 7 10 1015.3 - 0.0 - - - - - - -
20/10:00am 24.0 NE 8 12 1015.5 - 0.0 - - - - - - -
20/09:30am 22.3 NE 9 16 1015.1 - 0.0 - - - - - - -
20/09:00am 20.3 ENE 11 16 1015.4 - 0.0 - - - - - - -
20/08:30am 18.5 NE 10 16 1015.4 - 0.0 - - - - - - -
20/08:00am 16.7 NE 8 14 1015.3 - 0.0 - - - - - - -
20/07:30am 15.2 NE 8 12 1015.4 - 0.0 - - - - - - -
20/07:00am 15.6 ENE 7 10 1015.4 - 0.0 - - - - - - -
20/06:30am 15.4 NNE 7 10 1015.3 - 0.0 - - - - - - -
20/06:00am 15.7 ENE 7 9 1015.0 - 0.0 - - - - - - -
20/05:30am 15.7 E 7 9 1015.0 - 0.0 - - - - - - -
20/05:00am 15.3 ENE 7 10 1015.4 - 0.0 - - - - - - -
20/04:30am 15.1 ENE 6 9 1015.8 - 0.0 - - - - - - -
20/04:00am 15.1 ENE 6 8 1015.9 - 0.0 - - - - - - -
20/03:30am 15.4 ENE 6 9 1016.0 - 0.0 - - - - - - -
20/03:00am 15.5 ENE 6 8 1016.4 - 0.0 - - - - - - -
20/02:30am 15.6 ENE 5 7 1016.8 - 0.0 - - - - - - -
20/02:00am 16.1 ENE 6 7 1017.1 - 0.0 - - - - - - -
20/01:30am 16.8 E 7 9 1017.3 - 0.0 - - - - - - -
20/01:00am 17.0 ENE 7 10 1017.6 - 0.0 - - - - - - -
20/12:30am 17.4 E 8 15 1017.6 - 0.0 - - - - - - -
20/12:00am 17.3 E 9 16 1017.5 - 0.0 - - - - - - -
 
Date/Time
CDT
Temp

°C
Wind Pressure Rain
since 9am
mm
Weather Cloud Vis
km
Sea
Height
m
Swell
Dir
 
Speed
knots
Gust
knots
hPa Trend Height
m
Period
s
Dir
19/11:30pm 17.5 E 11 16 1017.5 - 0.0 - - - - - - -
19/11:00pm 17.7 E 11 15 1017.4 - 0.0 - - - - - - -
19/10:30pm 17.8 E 11 17 1017.3 - 0.0 - - - - - - -
19/10:00pm 17.9 ESE 13 20 1017.1 - 0.0 - - - - - - -
19/09:30pm 17.9 ESE 12 18 1017.0 - 0.0 - - - - - - -
19/09:00pm 18.1 ESE 13 20 1017.2 - 0.0 - - - - - - -
19/08:30pm 18.6 ESE 15 22 1017.4 - 0.0 - - - - - - -
19/08:00pm 19.3 ESE 13 20 1017.3 - 0.0 - - - - - - -
19/07:30pm 19.5 ESE 13 20 1017.5 - 0.0 - - - - - - -
19/07:00pm 20.1 ESE 15 20 1017.6 - 0.0 - - - - - - -
19/06:30pm 20.3 ESE 14 22 1017.7 - 0.0 - - - - - - -
19/06:18pm 20.9 SE 15 25 1017.7 - 0.0 - - - - - - -
19/06:00pm 21.0 ESE 15 22 1017.9 - 0.0 - - - - - - -
19/05:30pm 21.3 SE 15 20 1018.0 - 0.0 Haze Clear 25 - - - -
19/05:00pm 21.4 SE 14 18 1018.4 - 0.0 - - - - - - -
19/04:30pm 21.9 ESE 13 19 1018.8 - 0.0 - - - - - - -
19/04:00pm 22.1 ESE 13 21 1019.0 - 0.0 - - - - - - -
19/03:30pm 22.0 SE 13 20 1019.2 - 0.0 - - - - - - -
19/03:00pm 22.3 SE 12 19 1019.5 - 0.0 - - - - - - -
19/02:30pm 23.0 SE 13 18 1019.9 - 0.0 - - - - - - -
19/02:00pm 22.9 ESE 12 17 1020.2 - 0.0 - - - - - - -
19/01:30pm 22.4 ESE 12 18 1020.6 - 0.0 - - - - - - -
19/01:00pm 21.7 ESE 10 16 1020.7 - 0.0 - - - - - - -
19/12:30pm 21.5 SE 11 17 1020.9 - 0.0 - - - - - - -
19/12:00pm 21.6 SE 11 16 1021.1 - 0.0 - - - - - - -
19/11:30am 21.9 SE 10 15 1021.3 - 0.0 Fine Mostly clear 40 - - - -
19/11:00am 22.1 ESE 9 15 1021.2 - 0.0 - - - - - - -
19/10:30am 21.1 SE 9 15 1021.1 - 0.0 - - - - - - -
19/10:00am 20.8 ESE 8 12 1021.0 - 0.0 - - - - - - -
19/09:30am 20.3 ESE 8 14 1020.9 - 0.0 - - - - - - -
19/09:00am 19.9 ESE 7 11 1020.7 - 0.0 - - - - - - -
19/08:30am 19.4 E 6 8 1020.5 - 0.0 - - - - - - -
19/08:00am 17.8 E 6 8 1020.4 - 0.0 - - - - - - -
19/07:30am 15.4 ENE 5 6 1020.2 - 0.0 - - - - - - -
19/07:00am 14.7 NE 4 5 1019.9 - 0.0 - - - - - - -
19/06:30am 13.7 NE 4 4 1019.5 - 0.0 - - - - - - -
19/06:00am 14.3 NE 5 6 1019.6 - 0.0 - - - - - - -
19/05:30am 14.9 NE 4 4 1019.3 - 0.0 - - - - - - -
19/05:00am 14.9 NE 4 6 1019.2 - 0.0 - - - - - - -
19/04:30am 15.2 ENE 5 5 1019.2 - 0.0 - - - - - - -
19/04:00am 15.3 ENE 4 5 1019.2 - 0.0 - - - - - - -
19/03:30am 16.6 E 5 7 1019.3 - 0.0 - - - - - - -
19/03:00am 17.3 E 7 10 1019.3 - 0.0 - - - - - - -
19/02:30am 17.0 ESE 7 10 1019.4 - 0.0 - - - - - - -
19/02:00am 17.5 ESE 7 10 1019.5 - 0.0 - - - - - - -
19/01:30am 16.7 ESE 6 9 1019.6 - 0.0 - - - - - - -
19/01:00am 17.1 ESE 7 10 1019.9 - 0.0 - - - - - - -
19/12:30am 17.3 ESE 9 14 1019.8 - 0.0 - - - - - - -
19/12:00am 17.6 ESE 9 14 1019.8 - 0.0 - - - - - - -
 
Date/Time
CDT
Temp

°C
Wind Pressure Rain
since 9am
mm
Weather Cloud Vis
km
Sea
Height
m
Swell
Dir
 
Speed
knots
Gust
knots
hPa Trend Height
m
Period
s
Dir
18/11:30pm 17.6 SE 8 12 1019.6 - 0.0 - - - - - - -
18/11:00pm 18.1 SE 10 15 1019.5 - 0.0 - - - - - - -
18/10:30pm 17.8 SE 8 13 1019.3 - 0.0 - - - - - - -
18/10:00pm 17.9 SE 8 12 1019.1 - 0.0 - - - - - - -
18/09:30pm 18.5 SE 9 13 1018.8 - 0.0 - - - - - - -
18/09:00pm 18.6 SE 8 13 1018.8 - 0.0 - - - - - - -
18/08:30pm 19.0 SE 9 13 1018.7 - 0.0 - - - - - - -
18/08:00pm 19.6 SSE 9 13 1018.5 - 0.0 - - - - - - -
18/07:30pm 20.0 SSE 10 15 1018.1 - 0.0 - - - - - - -
18/07:00pm 20.2 SSE 10 16 1017.9 - 0.0 - - - - - - -
18/06:30pm 21.8 S 9 14 1017.8 - 0.0 - - - - - - -
18/06:00pm 21.4 SSE 10 15 1017.6 - 0.0 - - - - - - -
18/05:30pm 21.3 S 10 16 1017.6 - 0.0 Fine Partly cloudy 40 - - - -
18/05:00pm 22.9 S 11 16 1017.6 - 0.0 - - - - - - -
18/04:30pm 22.8 SSE 10 16 1017.7 - 0.0 - - - - - - -
18/04:00pm 22.6 SSE 11 18 1017.6 - 0.0 - - - - - - -
18/03:30pm 22.9 SSE 11 18 1017.6 - 0.0 - - - - - - -
18/03:00pm 22.3 SSE 11 17 1017.5 - 0.0 - - - - - - -
18/02:30pm 22.6 S 11 16 1017.5 - 0.0 - - - - - - -
18/02:00pm 23.1 S 10 16 1017.6 - 0.0 - - - - - - -
18/01:30pm 22.1 SSE 9 15 1017.7 - 0.0 - - - - - - -
18/01:00pm 22.8 SSE 10 17 1017.6 - 0.0 - - - - - - -
18/12:30pm 22.9 SSE 10 15 1017.5 - 0.0 - - - - - - -
18/12:00pm 23.2 SSE 10 15 1017.3 - 0.0 - - - - - - -
18/11:30am 22.0 S 9 15 1017.1 - 0.0 Fine Partly cloudy 40 - - - -
18/11:00am 21.4 S 10 17 1017.0 - 0.0 - - - - - - -
18/10:30am 20.2 SSE 9 14 1017.0 - 0.0 - - - - - - -
18/10:00am 20.5 S 11 16 1016.8 - 0.0 - - - - - - -
18/09:30am 19.8 S 10 14 1016.3 - 0.0 - - - - - - -
18/09:00am 19.6 S 10 16 1015.8 - 0.0 - - - - - - -
18/08:30am 19.8 S 9 14 1015.4 - 0.0 - - - - - - -
18/08:00am 18.9 S 9 13 1014.9 - 0.0 - - - - - - -
18/07:30am 18.0 S 7 10 1014.4 - 0.0 - - - - - - -
18/07:00am 17.5 S 8 13 1014.1 - 0.0 - - - - - - -
18/06:30am 17.0 S 7 12 1013.8 - 0.0 - - - - - - -
18/06:00am 17.1 S 8 13 1013.4 - 0.0 - - - - - - -
18/05:30am 17.4 S 9 14 1013.2 - 0.0 - - - - - - -
18/05:00am 17.8 S 10 18 1013.0 - 0.0 - - - - - - -
18/04:30am 17.7 SSE 8 13 1012.6 - 0.0 - - - - - - -
18/04:00am 17.7 SSE 7 10 1012.4 - 0.0 - - - - - - -
18/03:30am 17.9 SSE 8 14 1012.4 - 0.0 - - - - - - -
18/03:00am 17.7 SSE 8 12 1012.3 - 0.0 - - - - - - -
18/02:30am 17.7 SSE 9 14 1012.3 - 0.0 - - - - - - -
18/02:00am 17.8 SSE 9 14 1012.2 - 0.0 - - - - - - -
18/01:30am 17.8 SSE 11 16 1012.1 - 0.0 - - - - - - -
18/01:00am 17.7 SSE 10 17 1012.1 - 0.0 - - - - - - -
18/12:30am 17.9 SSE 10 17 1012.1 - 0.0 - - - - - - -
18/12:00am 17.8 SSE 10 15 1012.0 - 0.0 - - - - - - -

Other Formats:

Comma delimited format used in spreadsheet applications
http://www.bom.gov.au/fwo/IDS60701/IDS60701.94647.axf

JavaScript Object Notation format (JSON) in row-major order
http://www.bom.gov.au/fwo/IDS60701/IDS60701.94647.json